Flag for Sweden Weather past 2 weeks in Stockholm, Sweden

Now
63 °F

Drizzle. Broken clouds.


Feels Like: 63 °F
Forecast: 55 / 62 °F
Wind: 8 mph from East

Location: Stockholm Bromma Airport

Current Time: Jul 29, 2015 at 2:23:15 PM

Latest Report: Jul 29, 2015 at 1:50 PM


Visibility: N/A

Pressure: 29.47 "Hg

Humidity: 77%

Dew point: 55 °F

Location of StockholmLocation

Historic Weather in Stockholm — Graph

°F

Stockholm temperature yesterday

Maximum temperature yesterday: 66 °F (at 4:20 PM)
Minimum temperature yesterday: 55 °F (at 12:50 AM)
Average temperature yesterday: 60 °F

Past Weeks' High & Low Weather Summary

 TemperatureHumidityPressure
High73 °F (Jul 15, 12:50 PM)100% (Jul 15, 10:50 PM)29.98 "Hg (Jul 15, 10:50 PM)
Low48 °F (Jul 25, 3:20 AM)35% (Jul 24, 3:50 PM)29.33 "Hg (Jul 26, 5:50 PM)
Average60 °F76%29.70 "Hg
* Reported Jul 14 12:20 PM — Jul 29 12:50 PM, Stockholm, Weather by CustomWeather, © 2015

Note: Actual official high and low records may vary slightly from our data, if they occured in-between our weather recording intervals... More about our weather records

Advertising

Stockholm weather history for previous 24 hours

 ConditionsComfort  
Time TempWeatherWind HumidityBarometerVisibility
12:50 PM
Wed, Jul 29
63 °FPartly sunny.10 mph77%29.47 "HgN/A
12:20 PM63 °FPassing clouds.8 mph77%29.47 "HgN/A
11:50 AM63 °FPartly sunny.8 mph73%29.47 "HgN/A
11:20 AM63 °FCloudy.9 mph73%29.47 "HgN/A
10:50 AM63 °FPartly sunny.7 mph77%29.47 "HgN/A
10:20 AM63 °FSunny.9 mph77%29.47 "Hg10 mi
9:20 AM61 °FPartly sunny.8 mph83%29.47 "HgN/A
8:50 AM61 °FBroken clouds.7 mph83%29.50 "HgN/A
8:20 AM61 °FPartly sunny.6 mph88%29.50 "HgN/A
7:50 AM59 °FSunny.7 mph94%29.50 "Hg10 mi
7:20 AM59 °FSunny.8 mph88%29.50 "Hg10 mi
6:50 AM59 °FSunny.6 mph88%29.50 "Hg10 mi
6:20 AM59 °FSunny.6 mph88%29.50 "Hg10 mi
5:50 AM59 °FPassing clouds.6 mph88%29.50 "HgN/A
5:20 AM59 °FClear.6 mph88%29.50 "Hg10 mi
4:50 AM59 °FOvercast.6 mph88%29.50 "HgN/A
4:20 AM57 °FOvercast.6 mph94%29.50 "HgN/A
3:50 AM57 °FMostly cloudy.5 mph94%29.50 "HgN/A
3:20 AM57 °FOvercast.3 mph94%29.50 "HgN/A
2:50 AM57 °FPassing clouds.5 mph94%29.50 "HgN/A
2:20 AM57 °FPassing clouds.5 mph88%29.50 "HgN/A
1:50 AM59 °FOvercast.6 mph82%29.50 "HgN/A
1:20 AM59 °FPartly cloudy.3 mph82%29.53 "HgN/A
12:50 AM59 °FPassing clouds.3 mph82%29.53 "HgN/A
11:20 PM
Tue, Jul 28
59 °FFog.7 mph88%29.53 "Hg4 mi
10:50 PM59 °FOvercast.7 mph88%29.53 "HgN/A
10:20 PM61 °FMostly cloudy.8 mph83%29.53 "HgN/A
9:50 PM61 °FSunny.6 mph83%29.53 "Hg10 mi
9:20 PM61 °FSunny.7 mph83%29.53 "Hg10 mi
8:50 PM61 °FSunny.7 mph77%29.53 "Hg10 mi
8:20 PM63 °FSunny.7 mph73%29.53 "Hg10 mi
7:50 PM63 °FSunny.9 mph73%29.53 "Hg10 mi
7:20 PM63 °FPassing clouds.10 mph73%29.53 "HgN/A
6:50 PM64 °FSunny.9 mph68%29.53 "Hg10 mi
6:20 PM64 °FSunny.10 mph68%29.53 "Hg10 mi
5:50 PM64 °FPassing clouds.13 mph68%29.53 "HgN/A
5:20 PM64 °FSunny.10 mph73%29.53 "Hg10 mi
4:50 PM64 °FPassing clouds.10 mph68%29.53 "HgN/A
4:20 PM66 °FSunny.10 mph68%29.53 "Hg10 mi
3:50 PM64 °FSunny.12 mph73%29.56 "Hg10 mi
3:20 PM64 °FPassing clouds.10 mph68%29.56 "HgN/A
2:50 PM64 °FSunny.12 mph68%29.56 "Hg10 mi
2:20 PM64 °FPassing clouds.10 mph73%29.56 "HgN/A
Weather by CustomWeather, © 2015

See weather overviewHow to use our weather pages